Location: Colle San Luigi
(43.5500°N, 13.4167°E)
Time: 01:21:16
(UTC+00:00)

HJ-1C - Pass Details

Date: 09 April 2020
Orbit: 431 x 447 km, 97.2° (Epoch: 05 June)

Event Time Altitude Azimuth Distance (km) Brightness Sun altitude
Rises 18:19:24 0° 174° (S) 2,426 6.9 -7.2°
Reaches altitude 10° 18:21:26 10° 177° (S) 1,564 5.9 -7.6°
Maximum altitude 18:24:45 63° 259° (W) 504 3.9 -8.1°
Drops below altitude 10° 18:28:07 10° 342° (NNW) 1,584 6.7 -8.7°
Sets 18:30:11 0° 345° (NNW) 2,462 7.7 -9.0°
